Radiation Dose at Monitoring Post of Fukushima Daini Nuclear Power Station
Date,Time,MP-1(microSv/h),MP-2(microSv/h),MP-3(microSv/h),MP-4(microSv/h),MP-5(microSv/h),MP-6(microSv/h),MP-7(microSv/h),Wind Direction,Wind Velocity(m/s),Rain
2021/09/02,00:00,0.167,0.156,0.237,0.229,0.237,0.134,0.092,north,5.5,Yes
2021/09/02,00:10,0.166,0.157,0.237,0.231,0.238,0.134,0.092,north-northwest,5.5,Yes
2021/09/02,00:20,0.167,0.158,0.237,0.230,0.237,0.134,0.093,north-northwest,6.0,Yes
2021/09/02,00:30,0.167,0.158,0.237,0.231,0.239,0.136,0.093,northwest,5.6,Yes
2021/09/02,00:40,0.169,0.160,0.239,0.231,0.239,0.136,0.095,north-northwest,7.2,Yes
2021/09/02,00:50,0.170,0.160,0.241,0.232,0.241,0.136,0.095,northwest,6.5,Yes
2021/09/02,01:00,0.170,0.161,0.241,0.233,0.240,0.136,0.096,north-northwest,6.8,Yes
2021/09/02,01:10,0.171,0.162,0.241,0.234,0.241,0.137,0.096,northwest,7.8,Yes
2021/09/02,01:20,0.171,0.162,0.241,0.233,0.242,0.138,0.098,north-northwest,7.4,Yes
2021/09/02,01:30,0.171,0.161,0.243,0.234,0.244,0.138,0.097,northwest,8.1,Yes
2021/09/02,01:40,0.169,0.161,0.240,0.232,0.241,0.138,0.097,northwest,7.8,Yes
2021/09/02,01:50,0.171,0.161,0.241,0.233,0.243,0.138,0.097,northwest,8.4,Yes
2021/09/02,02:00,0.169,0.162,0.239,0.231,0.240,0.138,0.098,northwest,7.7,Yes
2021/09/02,02:10,0.169,0.160,0.240,0.233,0.243,0.138,0.096,northwest,6.3,Yes
2021/09/02,02:20,0.169,0.161,0.239,0.232,0.240,0.138,0.097,northwest,6.1,Yes
2021/09/02,02:30,0.169,0.161,0.238,0.232,0.242,0.138,0.097,north-northwest,5.6,Yes
2021/09/02,02:40,0.168,0.161,0.239,0.232,0.242,0.138,0.096,north-northwest,5.4,Yes
2021/09/02,02:50,0.169,0.161,0.239,0.233,0.242,0.136,0.096,north-northwest,6.7,Yes
2021/09/02,03:00,0.168,0.159,0.239,0.230,0.241,0.136,0.095,north-northwest,6.6,Yes
2021/09/02,03:10,0.167,0.158,0.236,0.232,0.241,0.135,0.094,north-northwest,7.8,Yes
2021/09/02,03:20,0.166,0.157,0.238,0.229,0.238,0.134,0.093,north-northwest,7.6,Yes
2021/09/02,03:30,0.166,0.156,0.236,0.229,0.238,0.133,0.092,north-northwest,8.1,Yes
2021/09/02,03:40,0.164,0.155,0.235,0.227,0.235,0.131,0.090,north-northwest,8.1,Yes
2021/09/02,03:50,0.162,0.154,0.232,0.227,0.236,0.129,0.089,north-northwest,8.1,Yes
2021/09/02,04:00,0.160,0.151,0.232,0.223,0.233,0.128,0.087,north-northwest,7.7,Yes
2021/09/02,04:10,0.160,0.151,0.230,0.223,0.232,0.126,0.085,north-northwest,7.2,Yes
2021/09/02,04:20,0.160,0.149,0.231,0.223,0.231,0.126,0.085,north-northwest,7.3,Yes
2021/09/02,04:30,0.160,0.149,0.229,0.222,0.231,0.126,0.084,north-northwest,7.7,Yes
2021/09/02,04:40,0.157,0.146,0.228,0.219,0.230,0.123,0.082,north-northwest,7.5,Yes
2021/09/02,04:50,0.159,0.147,0.228,0.220,0.230,0.124,0.082,north-northwest,6.9,Yes
2021/09/02,05:00,0.158,0.146,0.228,0.220,0.228,0.122,0.081,north-northwest,6.7,Yes
2021/09/02,05:10,0.159,0.147,0.227,0.220,0.229,0.122,0.082,north-northwest,6.4,Yes
2021/09/02,05:20,0.157,0.146,0.227,0.219,0.228,0.123,0.081,northwest,6.4,Yes
2021/09/02,05:30,0.157,0.147,0.226,0.219,0.228,0.122,0.080,northwest,5.9,Yes
2021/09/02,05:40,0.156,0.145,0.226,0.219,0.227,0.121,0.081,northwest,6.5,Yes
2021/09/02,05:50,0.157,0.145,0.225,0.220,0.227,0.121,0.080,northwest,6.3,Yes
2021/09/02,06:00,0.155,0.144,0.224,0.218,0.228,0.120,0.079,north-northwest,6.8,No
2021/09/02,06:10,0.156,0.144,0.224,0.218,0.225,0.120,0.079,north-northwest,6.3,Yes
2021/09/02,06:20,0.155,0.144,0.224,0.217,0.227,0.120,0.079,north-northwest,6.4,Yes
2021/09/02,06:30,0.155,0.144,0.225,0.218,0.224,0.120,0.079,north-northwest,6.2,Yes
2021/09/02,06:40,0.155,0.144,0.224,0.216,0.227,0.120,0.078,north-northwest,6.1,Yes
2021/09/02,06:50,0.156,0.144,0.225,0.219,0.225,0.120,0.078,north-northwest,6.0,Yes
2021/09/02,07:00,0.155,0.144,0.224,0.216,0.228,0.121,0.078,northwest,5.5,No
2021/09/02,07:10,0.156,0.144,0.225,0.218,0.226,0.120,0.079,north-northwest,6.1,No
2021/09/02,07:20,0.155,0.144,0.224,0.217,0.228,0.120,0.078,north-northwest,6.3,Yes
2021/09/02,07:30,0.155,0.143,0.225,0.219,0.226,0.120,0.078,north-northwest,5.8,No
2021/09/02,07:40,0.155,0.144,0.225,0.218,0.228,0.121,0.078,north-northwest,5.4,Yes
2021/09/02,07:50,0.154,0.144,0.223,0.219,0.226,0.120,0.079,north-northwest,6.2,Yes
2021/09/02,08:00,0.155,0.143,0.225,0.219,0.226,0.120,0.079,north-northwest,5.7,Yes
2021/09/02,08:10,0.155,0.144,0.225,0.218,0.227,0.120,0.078,north-northwest,5.4,No
2021/09/02,08:20,0.155,0.143,0.224,0.218,0.225,0.121,0.079,north-northwest,5.6,No
2021/09/02,08:30,0.155,0.144,0.224,0.219,0.227,0.120,0.078,north-northwest,5.6,No
2021/09/02,08:40,0.155,0.144,0.226,0.217,0.225,0.120,0.078,north-northwest,5.5,No
2021/09/02,08:50,0.154,0.143,0.223,0.215,0.227,0.120,0.078,north-northwest,5.8,No
2021/09/02,09:00,0.154,0.142,0.225,0.218,0.225,0.119,0.077,north-northwest,5.4,No
2021/09/02,09:10,0.154,0.143,0.223,0.216,0.224,0.119,0.077,north-northwest,5.4,No
2021/09/02,09:20,0.155,0.141,0.224,0.217,0.224,0.120,0.077,north-northwest,5.4,No
2021/09/02,09:30,0.154,0.143,0.222,0.216,0.223,0.119,0.077,north-northwest,4.9,No
2021/09/02,09:40,0.153,0.142,0.224,0.216,0.226,0.119,0.076,north-northwest,5.4,No
2021/09/02,09:50,0.154,0.142,0.225,0.217,0.223,0.119,0.078,north-northwest,4.2,No
2021/09/02,10:00,0.153,0.142,0.221,0.215,0.225,0.119,0.077,north-northwest,4.4,No
2021/09/02,10:10,0.154,0.142,0.224,0.217,0.226,0.120,0.078,north-northwest,4.5,No
2021/09/02,10:20,0.154,0.143,0.223,0.217,0.223,0.119,0.077,northwest,3.5,No
2021/09/02,10:30,0.153,0.143,0.221,0.215,0.226,0.118,0.076,north-northwest,4.2,No
2021/09/02,10:40,0.154,0.141,0.224,0.218,0.226,0.119,0.077,north-northwest,3.9,No
2021/09/02,10:50,0.153,0.143,0.223,0.217,0.223,0.119,0.077,north-northwest,3.4,No
2021/09/02,11:00,0.155,0.141,0.224,0.217,0.225,0.119,0.076,north-northwest,3.2,No
2021/09/02,11:10,0.155,0.142,0.224,0.217,0.226,0.120,0.077,north-northwest,3.0,No
2021/09/02,11:20,0.153,0.142,0.223,0.216,0.224,0.119,0.076,north-northwest,3.6,No
2021/09/02,11:30,0.154,0.143,0.224,0.217,0.226,0.119,0.076,north-northwest,4.0,No
2021/09/02,11:40,0.154,0.142,0.223,0.217,0.224,0.120,0.078,north-northwest,3.2,No
2021/09/02,11:50,0.154,0.142,0.224,0.217,0.225,0.118,0.076,north,3.6,No
2021/09/02,12:00,0.155,0.142,0.225,0.217,0.227,0.120,0.076,north,3.9,No
2021/09/02,12:10,0.153,0.143,0.223,0.217,0.225,0.120,0.077,north-northwest,4.6,No
2021/09/02,12:20,0.155,0.141,0.225,0.215,0.223,0.119,0.076,north,4.0,No
2021/09/02,12:30,0.155,0.143,0.225,0.218,0.227,0.120,0.076,north,3.4,No
2021/09/02,12:40,0.153,0.143,0.222,0.217,0.225,0.119,0.077,north-northwest,1.9,No
2021/09/02,12:50,0.155,0.142,0.226,0.216,0.224,0.119,0.077,north,1.7,No
2021/09/02,13:00,0.154,0.143,0.224,0.218,0.227,0.119,0.077,north-northwest,1.7,No
2021/09/02,13:10,0.154,0.143,0.224,0.216,0.225,0.120,0.077,north,2.5,No
2021/09/02,13:20,0.155,0.142,0.226,0.217,0.225,0.119,0.077,north-northwest,1.5,No
2021/09/02,13:30,0.153,0.143,0.224,0.218,0.228,0.120,0.077,north,1.6,No
2021/09/02,13:40,0.154,0.143,0.224,0.216,0.225,0.119,0.077,north-northwest,2.0,No
2021/09/02,13:50,0.156,0.142,0.227,0.217,0.225,0.119,0.076,north,1.8,No
2021/09/02,14:00,0.154,0.143,0.223,0.218,0.227,0.120,0.077,north,3.0,No
2021/09/02,14:10,0.155,0.143,0.224,0.216,0.225,0.120,0.077,north-northwest,1.7,Yes
2021/09/02,14:20,0.155,0.143,0.227,0.219,0.225,0.119,0.077,north-northwest,2.0,No
2021/09/02,14:30,0.154,0.144,0.223,0.219,0.227,0.121,0.078,north-northwest,1.4,No
2021/09/02,14:40,0.155,0.142,0.224,0.217,0.226,0.119,0.077,north,2.0,No
2021/09/02,14:50,0.155,0.142,0.226,0.217,0.223,0.120,0.076,north-northwest,1.7,No
2021/09/02,15:00,0.155,0.144,0.224,0.218,0.227,0.121,0.077,north-northwest,1.9,No
2021/09/02,15:10,0.156,0.143,0.227,0.217,0.225,0.120,0.077,north-northwest,3.2,No
2021/09/02,15:20,0.155,0.143,0.226,0.218,0.224,0.118,0.076,north-northwest,2.3,No
2021/09/02,15:30,0.155,0.143,0.225,0.219,0.227,0.121,0.077,north-northwest,2.9,No
2021/09/02,15:40,0.156,0.143,0.226,0.217,0.226,0.120,0.078,north-northwest,3.5,No
2021/09/02,15:50,0.155,0.143,0.225,0.219,0.224,0.119,0.077,north-northwest,2.8,No
2021/09/02,16:00,0.156,0.143,0.226,0.218,0.228,0.120,0.077,north-northwest,2.5,No
2021/09/02,16:10,0.156,0.142,0.226,0.217,0.226,0.120,0.077,northwest,3.1,No
2021/09/02,16:20,0.154,0.144,0.225,0.219,0.224,0.119,0.077,north-northwest,3.7,No
2021/09/02,16:30,0.155,0.143,0.225,0.218,0.228,0.121,0.078,north-northwest,3.0,No
2021/09/02,16:40,0.156,0.144,0.227,0.218,0.226,0.120,0.078,north-northwest,3.1,No
2021/09/02,16:50,0.156,0.144,0.224,0.219,0.225,0.120,0.078,north-northwest,2.7,No
2021/09/02,17:00,0.155,0.143,0.228,0.219,0.228,0.121,0.077,north,2.6,No
2021/09/02,17:10,0.157,0.144,0.227,0.219,0.226,0.121,0.078,north-northwest,2.6,No
2021/09/02,17:20,0.155,0.144,0.227,0.219,0.225,0.121,0.077,north,3.4,No
2021/09/02,17:30,0.156,0.143,0.226,0.217,0.229,0.122,0.078,north-northwest,4.5,No
2021/09/02,17:40,0.156,0.145,0.226,0.220,0.226,0.120,0.078,north-northeast,4.0,No
2021/09/02,17:50,0.154,0.142,0.226,0.219,0.227,0.121,0.077,north-northeast,4.4,Yes
2021/09/02,18:00,0.157,0.143,0.226,0.218,0.228,0.122,0.078,northeast,5.9,No
2021/09/02,18:10,0.156,0.144,0.226,0.220,0.225,0.120,0.077,northeast,5.0,No
2021/09/02,18:20,0.155,0.143,0.226,0.218,0.228,0.120,0.077,northeast,4.8,No
2021/09/02,18:30,0.156,0.145,0.226,0.220,0.226,0.121,0.077,north-northeast,4.6,No
2021/09/02,18:40,0.155,0.143,0.226,0.219,0.226,0.121,0.077,north-northeast,4.6,No
2021/09/02,18:50,0.156,0.144,0.225,0.218,0.226,0.121,0.077,north-northeast,4.9,No
2021/09/02,19:00,0.155,0.143,0.226,0.220,0.225,0.120,0.077,north-northeast,4.5,Yes
2021/09/02,19:10,0.156,0.143,0.226,0.218,0.227,0.120,0.076,north,4.9,No
2021/09/02,19:20,0.156,0.144,0.225,0.220,0.226,0.120,0.078,north-northwest,4.1,No
2021/09/02,19:30,0.155,0.144,0.227,0.218,0.226,0.120,0.077,north-northwest,5.5,Yes
2021/09/02,19:40,0.157,0.144,0.225,0.220,0.226,0.121,0.078,north-northwest,4.9,No
2021/09/02,19:50,0.156,0.143,0.228,0.217,0.226,0.120,0.077,northwest,5.4,No
2021/09/02,20:00,0.155,0.144,0.226,0.218,0.228,0.121,0.078,north-northwest,5.6,No
2021/09/02,20:10,0.155,0.144,0.227,0.220,0.225,0.121,0.077,north-northwest,5.2,No
2021/09/02,20:20,0.155,0.143,0.226,0.217,0.225,0.120,0.078,north-northwest,5.6,No
2021/09/02,20:30,0.158,0.144,0.225,0.219,0.227,0.121,0.077,north-northwest,5.5,No
2021/09/02,20:40,0.155,0.143,0.227,0.217,0.225,0.121,0.077,north-northwest,6.0,No
2021/09/02,20:50,0.155,0.143,0.223,0.220,0.226,0.120,0.077,north-northwest,6.9,No
2021/09/02,21:00,0.156,0.143,0.228,0.219,0.225,0.121,0.077,northwest,6.3,No
2021/09/02,21:10,0.155,0.144,0.225,0.219,0.227,0.121,0.077,northwest,6.5,No
2021/09/02,21:20,0.157,0.144,0.226,0.220,0.226,0.120,0.077,north-northwest,6.2,No
2021/09/02,21:30,0.156,0.143,0.225,0.217,0.225,0.121,0.077,northwest,5.5,No
2021/09/02,21:40,0.155,0.143,0.225,0.220,0.226,0.121,0.078,north-northwest,5.2,No
2021/09/02,21:50,0.157,0.143,0.227,0.216,0.225,0.120,0.078,north-northwest,5.7,No
2021/09/02,22:00,0.155,0.144,0.224,0.219,0.226,0.120,0.077,north-northwest,5.0,No
2021/09/02,22:10,0.156,0.143,0.226,0.220,0.226,0.120,0.078,north-northwest,5.6,No
2021/09/02,22:20,0.156,0.144,0.223,0.218,0.224,0.120,0.077,north-northwest,5.6,No
2021/09/02,22:30,0.155,0.142,0.226,0.221,0.227,0.120,0.077,north-northwest,6.3,No
2021/09/02,22:40,0.156,0.144,0.225,0.218,0.224,0.122,0.078,north-northwest,6.0,No
2021/09/02,22:50,0.154,0.144,0.226,0.219,0.228,0.121,0.078,north-northwest,6.6,No
2021/09/02,23:00,0.156,0.143,0.226,0.219,0.227,0.120,0.077,north-northwest,6.7,No
2021/09/02,23:10,0.156,0.144,0.225,0.218,0.226,0.121,0.077,north-northwest,6.9,No
2021/09/02,23:20,0.157,0.144,0.227,0.220,0.227,0.120,0.078,north-northwest,6.7,No
2021/09/02,23:30,0.157,0.143,0.225,0.217,0.225,0.122,0.077,northwest,6.4,No
2021/09/02,23:40,0.155,0.143,0.226,0.219,0.228,0.120,0.077,north-northwest,6.7,No
2021/09/02,23:50,0.157,0.143,0.225,0.218,0.226,0.121,0.077,north-northwest,6.6,No
